星链-2459 (STARLINK-2459 )

导读

STARLINK-2459是美国太空探索技术公司(SpaceX)星链星座的成员,在2021年4月7日发射入轨。它属于星链互联网卫星组网项目,主要为全球提供低延迟、高速率的卫星宽带互联网服务,弥补地面网络覆盖盲区,推动全球互联,是星链大规模组网进程中重要的一颗卫星。

Basic Information
目录编号:
48119
目录名称:
STARLINK-2459
国际标识:
2021-027AD
轨道中心:
EARTH
卫星名称:
星链-2459
卫星全名:
星链-2459 (STARLINK-2459 )
卫星状态:
在轨 (已飞行1895 天)
发射日期:
2021-04-07 UTC
国别 :
美国 (US)
星等 :
--
Orbit Information
数据来源 国际轨道数据 AOE轨道数据
星历时间 2026-06-15T06:27:23+0800
8小时前
查看轨道信息
2026-06-15T05:00:00+0800
10小时前
查看轨道信息
半长轴 6848.894km 6848.867km
偏心率 0.0001114 0.0001067
轨道倾角 53.160° 53.160°
近地点辐角 68.409° 113.236°
升交点赤经 60.022° 60.308°
平近点角 291.703° 272.102°
近地点 469.994km 469.999km
远地点 471.52km 471.461km
周期 94.014分钟 94.013分钟
每日圈数 15.316946 15.317035
Detailed Information
固有亮度:
5
最大亮度:
2.5
卫星平台:
Starlink V1.0
覆盖范围:
全球
运营商:
太空探索技术公司
运营商所在国:
美国
制造商(研发单位):
太空探索技术公司
制造商所在国:
美国
使用方式:
暂无
Satellite Introduction
星链(Starlink)计划是由太空探索技术公司(SpaceX)提出的一个巨型低轨卫星互联网星座项目,计划在2019年至2024年间在太空搭建由约1.2万颗卫星组成的“星链”网络,其中1584颗将部署在地球上空550千米处的近地轨道,并从2020年开始工作。该卫星仍在工作。
2D Orbit Map
3D Orbit Map
Orbit Altitude Analysis Chart
Orbit Inclination Analysis Chart
Orbit Comprehensive Analysis Chart
View Comprehensive Chart